{"data":{"norad_id":58929,"intl_designator":"2024-026A","name":"COSMOS 2575","alt_names":[],"object_type":"PAYLOAD","status":"ACTIVE","operator":null,"country":"CIS","launch_date":"2024-02-09","launch_site_code":"PLMSC","launch_vehicle":null,"mission":null,"orbit_class":"UNKNOWN","rcs_meters":null,"size_class":null,"mass_kg":null,"dimensions":null,"purposes":[],"wikipedia_slug":null,"has_3d_model":false,"image_url":null,"decayed_at":null,"tle_current":{"epoch":"2026-09-18T19:37:28.886880Z","epoch_age_seconds":397758,"freshness":"STALE","line1":"1 58929U 24026A   26261.81769545  .00018958  00000+0  13901-3 0  9996","line2":"2 58929  96.5799 141.3743 0019327  15.6634 344.5226 15.72921719150376","mean_motion":15.72921719,"eccentricity":0.0019327,"inclination_deg":96.5799,"raan_deg":141.3743,"arg_perigee_deg":15.6634,"mean_anomaly_deg":344.5226,"bstar":0.00013901,"rev_number":15037,"period_min":91.549374810305,"perigee_km":337.5471455711,"apogee_km":363.55621880322,"semimajor_km":6728.6886821872,"source":"CELESTRAK","updated_at":"2026-09-23T09:00:19.074710Z"}}}